Home > Time Zones > World Clock > Weather > Italy > Bari > Past weeks

Flag for Italy Weather past 2 weeks in Bari, Italy

48 °F

Passing clouds.

Feels Like: 46 °F
Forecast: 52 / 59 °F
Wind: 5 mph from West

Location: Bari / Palese Macchie

Current Time: Nov 27, 2015 at 12:25:12 AM

Latest Report: Nov 26, 2015 at 11:20 PM

Visibility: N/A

Pressure: 29.36 "Hg

Humidity: 94%

Dew point: 46 °F

Location of BariLocation

Historic Weather in Bari — Graph


Bari temperature yesterday

Maximum temperature yesterday: 55 °F (at 1:20 PM)
Minimum temperature yesterday: 43 °F (at 1:20 AM)
Average temperature yesterday: 49 °F

Past Weeks' High & Low Weather Summary

High72 °F (Nov 20, 12:50 PM)100% (Nov 12, 1:50 AM)30.36 "Hg (Nov 12, 1:50 AM)
Low43 °F (Nov 23, 1:50 AM)37% (Nov 22, 11:50 AM)29.30 "Hg (Nov 21, 4:50 PM)
Average56 °F83%29.99 "Hg
* Reported Nov 11 10:20 PM — Nov 26 10:50 PM, Bari, Weather by CustomWeather, © 2015

Note: Actual official high and low records may vary slightly from our data, if they occured in-between our weather recording intervals... More about our weather records


Bari weather history for previous 24 hours

Time TempWeatherWind HumidityBarometerVisibility
10:50 PM
Thu, Nov 26
48 °FPassing clouds.3 mph94%29.36 "HgN/A
10:20 PM48 °FLight rain. Partly cloudy.6 mph100%29.36 "HgN/A
9:50 PM48 °FRain. Passing clouds.3 mph94%29.39 "Hg4 mi
9:20 PM48 °FRain. Passing clouds.7 mph94%29.39 "HgN/A
8:50 PM50 °FLight rain. Passing clouds.7 mph88%29.36 "HgN/A
8:20 PM48 °FPassing clouds.6 mph94%29.36 "HgN/A
7:50 PM48 °FPassing clouds.7 mph94%29.33 "HgN/A
7:20 PM48 °FPassing clouds.6 mph94%29.33 "HgN/A
6:50 PM48 °FPassing clouds.6 mph94%29.33 "HgN/A
6:20 PM50 °FPassing clouds.12 mph88%29.33 "HgN/A
5:50 PM48 °FPassing clouds.9 mph94%29.33 "HgN/A
5:20 PM50 °FPassing clouds.8 mph88%29.33 "HgN/A
4:50 PM50 °FThundershowers. Passing clouds.10 mph88%29.33 "HgN/A
4:20 PM50 °FScattered clouds.9 mph88%29.33 "HgN/A
3:50 PM50 °FScattered clouds.12 mph88%29.33 "HgN/A
3:20 PM52 °FScattered clouds.13 mph88%29.33 "HgN/A
2:50 PM54 °FScattered clouds.10 mph88%29.30 "HgN/A
1:50 PM55 °FScattered clouds.5 mph94%29.33 "HgN/A
1:20 PM55 °FScattered clouds.1 mph94%29.33 "HgN/A
12:50 PM54 °FScattered clouds.2 mph94%29.33 "HgN/A
12:20 PM54 °FLight rain. Scattered clouds.3 mph94%29.36 "HgN/A
11:50 AM52 °FLight rain. Scattered clouds.6 mph100%29.39 "Hg4 mi
11:20 AM52 °FLight rain. Scattered clouds.6 mph100%29.39 "Hg4 mi
10:50 AM52 °FLight rain. Scattered clouds.7 mph100%29.39 "HgN/A
10:20 AM52 °FLight rain. Scattered clouds.8 mph94%29.42 "HgN/A
9:50 AM52 °FLight rain. Scattered clouds.10 mph94%29.42 "HgN/A
9:20 AM52 °FLight rain. Scattered clouds.7 mph94%29.42 "Hg4 mi
8:50 AM50 °FLight rain. Scattered clouds.7 mph94%29.42 "Hg4 mi
8:20 AM48 °FLight rain. Scattered clouds.5 mph100%29.45 "Hg4 mi
7:50 AM48 °FLight rain. Scattered clouds.5 mph94%29.45 "Hg4 mi
7:20 AM48 °FScattered clouds.5 mph87%29.45 "Hg4 mi
6:50 AM46 °FPassing clouds.5 mph93%29.45 "HgN/A
6:20 AM46 °FPassing clouds.3 mph93%29.47 "HgN/A
5:50 AM46 °FPassing clouds.2 mph87%29.47 "HgN/A
5:20 AM43 °FPassing clouds.5 mph100%29.47 "HgN/A
4:50 AM43 °FPassing clouds.2 mph100%29.50 "HgN/A
3:20 AM43 °FPassing clouds.3 mph93%29.53 "HgN/A
2:50 AM43 °FPassing clouds.2 mph93%29.53 "HgN/A
2:20 AM43 °FPassing clouds.3 mph93%29.53 "HgN/A
1:50 AM43 °FPassing clouds.5 mph93%29.53 "HgN/A
1:20 AM43 °FPassing clouds.7 mph93%29.53 "HgN/A
12:50 AM45 °FPassing clouds.6 mph93%29.56 "HgN/A
12:20 AM45 °FPassing clouds.7 mph93%29.56 "HgN/A
Weather by CustomWeather, © 2015

See weather overviewHow to use our weather pages